Preview of NWS' New Version of Forecast
This preview is not operational and should not be used for support decisions.

Regional Weather Roundup (RWR)

Issued by National Weather Service (NWS)

                            
000
ASUS42 KTBW 230517
RWRFL 
FLORIDA REGIONAL WEATHER ROUNDUP
NATIONAL WEATHER SERVICE TAMPA BAY RUSKIN FL
100 AM EDT SAT MAR 23 2019

NOTE: "FAIR" INDICATES FEW OR NO CLOUDS BELOW 12,000 FEET WITH NO
SIGNIFICANT WEATHER AND/OR OBSTRUCTIONS TO VISIBILITY.

FLZ001>010-012>015-112-114-115-230600-
PANHANDLE FLORIDA
  
CITY           SKY/WX    TMP DP  RH WIND       PRES   REMARKS
PENSACOLA      FAIR      54  49  83 NW3       30.16S                  
PENSACOLA NAS  FAIR      45  44  97 NW3       30.15F                  
MILTON NAS     FAIR      44  39  82 W3        30.16R                  
CRESTVIEW      FAIR      41  36  82 CALM      30.17R                  
MARY ESTHER    CLEAR     49  45  86 N5        30.14R                  
PANAMA CITY    FAIR      49  46  90 CALM      30.14S                  
APALACHICOLA   FAIR      52  48  86 NW6       30.14S                  

STATION/POSITION SKY/WX   TEMP    WIND        PRES    WAVE   SWELL
                          AIR SEA DIR/SP/G            HT/PER HT/PER
                          (F)     (DEG/KT/KT) (MB)    (FT/S) (FT/S)
30.1N   87.6W                                 1021.2F   1/ 3
29.2N   88.2W                     290/  8/  8 1021.5F   1
PANAMA CITY BEAC           62 65  310/  7/  9 1021.0F
TOWER C                    62     320/ 16/ 17 1020.4F

$$
FLZ011-016>038-118-127-128-134-139-239-230600-
NORTH FLORIDA
  
CITY           SKY/WX    TMP DP  RH WIND       PRES   REMARKS
MARIANNA       FAIR      48  41  76 CALM      30.13S                  
TALLAHASSEE    FAIR      42  35  76 CALM      30.14R                  
PERRY          FOG       45  45  97 CALM      30.13S VSB<1/4          
LIVE OAK       CLEAR     46  46 100 CALM      30.11F                  
CROSS CITY     FAIR      47  46  97 CALM      30.13S                  
LAKE CITY      FAIR      50  46  87 W5        30.12S                  
GAINESVILLE    FAIR      57  49  74 NW6       30.14S                  
WILLISTON        N/A    N/A N/A N/A MISG        N/A                   
PALATKA        CLOUDY   N/A N/A N/A CALM      30.12S                  
MAYPORT NAS    FAIR      61  38  42 W8        30.09R                  
JACKSONVILLE   FAIR      48  39  71 W6        30.09S                  
JAX NAS        FAIR      57  36  45 W10       30.11R                  
JAX CECIL      FAIR     N/A N/A N/A CALM      30.11S                  
FERNANDINA BEA FAIR      55  36  48 W8        30.09S                  
ST AUGUSTINE   FAIR      55  44  66 W6        30.12R                  
PALM COAST     FAIR      51  45  78 SW3       30.12R                  

STATION/POSITION SKY/WX   TEMP    WIND        PRES    WAVE   SWELL
                          AIR SEA DIR/SP/G            HT/PER HT/PER
                          (F)     (DEG/KT/KT) (MB)    (FT/S) (FT/S)
SHELL POINT      NOT AVBL
KEATON BEACH               60      CALM  /  1 1020.2S
CEDAR KEY                  61     310/  5/  7 1020.3R
FERNANDINA                 59 62  270/  7/  9 1019.6R
30.7N   81.3W                 62                N/A     2/12   2/12
MAYPORT                    62 62  280/  6/  9 1019.0R
31.4N   80.9W              63 62  270/ 14/ 16 1017.7R   2/11
ST AUGUSTINE               56 63  270/  7/  9 1019.6R

$$
FLZ040-043>046-052-053-057-058-063-144-230600-
INTERIOR CENTRAL FLORIDA
  
CITY           SKY/WX    TMP DP  RH WIND       PRES   REMARKS
OCALA          FAIR      47  44  90 CALM      30.14R                  
LEESBURG       FAIR      54  47  77 W5        30.14R                  
SANFORD        FAIR      55  45  68 W3        30.12S                  
ORLANDO EXEC   FAIR      57  46  66 W6        30.12S                  
ORLANDO INTL   FAIR      55  45  68 W3        30.13S                  
KISSIMMEE      FAIR      52  46  80 CALM      30.14                   
WINTER HAVEN   FAIR      56  47  71 NW5       30.14F                  
LAKELAND       FAIR      50  43  76 CALM      30.14S                  
BARTOW         FAIR      52  46  82 CALM      30.12S                  
SEBRING        FAIR      56  46  67 NW5       30.12S                  
OKEECHOBEE     FAIR      50  46  87 CALM      30.11F                  

$$
FLZ041-047-054-059-064-141-147-230600-
EAST CENTRAL FLORIDA
  
CITY           SKY/WX    TMP DP  RH WIND       PRES   REMARKS
DAYTONA BEACH  FAIR      52  45  77 W6        30.12R                  
DELAND         FAIR      55  45  67 W5        30.12R                  
MELBOURNE      FAIR      56  45  66 W9        30.10F                  
VERO BEACH     FAIR      54  46  74 W7        30.10F                  
STUART         FAIR      59  45  58 W6        30.12S                  

STATION/POSITION SKY/WX   TEMP    WIND        PRES    WAVE   SWELL
                          AIR SEA DIR/SP/G            HT/PER HT/PER
                          (F)     (DEG/KT/KT) (MB)    (FT/S) (FT/S)
28.5N   80.2W              65     290/ 16/ 17 1019.6S   4/11   3/11
28.9N   78.5W              72 74  260/ 14/ 17 1018.6S   5/ 7   3/ 7
TRIDENT PIER               60 67  270/  8/ 11 1020.6R
28.4N   80.5W                 67                N/A     2/11   2/11
27.5N   80.2W                 69                N/A     3/11   2/11

$$
FLZ050-056-061-142-242-148-248-149-249-151-251-155-255-
160-260-230600-
WEST CENTRAL FLORIDA
  
CITY           SKY/WX    TMP DP  RH WIND       PRES   REMARKS
CRYSTAL RIVER  FAIR      45  43  93 CALM      30.14S                  
INVERNESS      FAIR      45  45 100 CALM      30.14S                  
BROOKSVILLE    FAIR      45  42  89 CALM      30.14S                  
CLEARWATER AIR FAIR      54  46  76 CALM      30.13F                  
ST PETE CLEARW FAIR      52  48  86 CALM      30.13S                  
TAMPA INTL     FAIR      59  48  67 NW6       30.14S                  
TAMPA EXEC     FAIR      46  45  93 CALM      30.14S                  
PLANT CITY     FAIR      52  45  76 CALM      30.15S                  
PETER O KNIGHT MOCLDY    59  52  77 CALM      30.14S                  
ST PETERSBURG  FAIR      62  49  62 NW6       30.11F                  
SARASOTA       FAIR      55  47  74 N3        30.11F                  
VENICE         FAIR      55  48  76 NE3       30.13F                  

STATION/POSITION SKY/WX   TEMP    WIND        PRES    WAVE   SWELL
                          AIR SEA DIR/SP/G            HT/PER HT/PER
                          (F)     (DEG/KT/KT) (MB)    (FT/S) (FT/S)
27.3N   84.2W                 72                N/A     3/ 6
CLEARWATER BEACH           63 68  300/  7/  9 1020.5S
MIDDLE TAMPA BAY           63     350/  8/ 10 1020.3F
VENICE                     65 71  310/  9/ 11 1019.9F

$$
FLZ066-069-070-075>078-162-262-165-265-230600-
SOUTHWEST FLORIDA AND KEYS
  
CITY           SKY/WX    TMP DP  RH WIND       PRES   REMARKS
PUNTA GORDA    FAIR      53  48  83 S3        30.14F                  
FT MYERS       FAIR      59  50  72 CALM      30.12F                  
SOUTHWEST INTL FAIR      61  48  62 NW3       30.13F                  
NAPLES         FAIR      63  54  72 N3        30.12F                  
MARCO ISLAND   FAIR      62  54  74 N3        30.13F                  
IMMOKALEE      FAIR      52  48  87 CALM      30.11F                  
MARATHON       FAIR      70  53  54 N6        30.12F                  
KEY WEST NAS   FAIR      68  53  58 N7        30.13R                  
KEY WEST INTL  FAIR      66  55  67 N5        30.13F                  

STATION/POSITION SKY/WX   TEMP    WIND        PRES    WAVE   SWELL
                          AIR SEA DIR/SP/G            HT/PER HT/PER
                          (F)     (DEG/KT/KT) (MB)    (FT/S) (FT/S)
NAPLES                     67 71  260/  7/ 10 1020.1F
26.0N   85.6W              70 79  320/  4/  8 1020.6
DRY TORTUGAS               69      40/  7/  8 1020.4F
SAND KEY                   68                 1020.4F
SOMBRERO KEY               69                 1019.5F
MOLASSES REEF              67 78  350/ 14/ 14 1019.9F

$$
FLZ067-068-071>074-168-172>174-230600-
SOUTHEAST FLORIDA 
  
CITY           SKY/WX    TMP DP  RH WIND       PRES   REMARKS
W PALM BEACH   FAIR      60  50  69 W5        30.12S                  
FT LAUDER-EXEC FAIR      62  51  67 W6        30.12S                  
FT LAUDERDALE  FAIR      63  50  62 W5        30.11S                  
POMPANO BEACH  FAIR      62  50  64 W8        30.12S                  
PEMBROKE PINES FAIR      61  51  70 NW9       30.13S                  
OPA LOCKA      FAIR      63  52  67 NW9       30.13S                  
MIAMI          FAIR      63  55  75 W5        30.12F                  
WEST KENDALL   FAIR      55  53  93 W5        30.12F                  
HOMESTEAD      NOT AVBL                                               

STATION/POSITION SKY/WX   TEMP    WIND        PRES    WAVE   SWELL
                          AIR SEA DIR/SP/G            HT/PER HT/PER
                          (F)     (DEG/KT/KT) (MB)    (FT/S) (FT/S)
PORT EVERGLADES            67     290/ 11/ 13 1019.6F
VIRGINIA KEY               66 76  270/  4/  6 1019.0F
LAKE WORTH                 63 73  250/  5/  7 1020.5F
FOWEY ROCKS                68 77  270/  8/  8 1020.3F
SETTLEMENT POINT           67     120/  6/  7 1019.4F

$$